DECAYED

STARLINK-1146, 45094 (Decayed)

Orbit data source: Space-Track

STARLINK-1146, 45094 was a payload satellite owned by SpaceX/Seattle (US) in LEO that was launched on Wed, 29 Jan 2020 UTC via an FALCON 9 launch vehicle from the Air Force Eastern Test Range (AFETR). Payload-class satellites include a variety of spacecraft equipped with specific instruments for various scientific and technological missions. These include communications satellites like Starlink; space stations such as the ISS; scientific satellites like the Hubble; Earth observation satellites from companies like Planet Labs, Umbra, and HawkEye 360; GPS; miniature CubeSats for education and research; and military/defense satellites.

Not visible in the next 10 days
Identifier
45094, 2020-006BC
Orbit
Decayed
Country
Flag of USUS
Related business
Manufacturer
SpaceX/Seattle
Mission
Decayed Commercial Communications
Bus & Motor
STARLINK, Unknown motor
Mass
260 kg wet, ~248 kg dry
Launch date (UTC)
2020-01-29 (6 years ago)
Launch vehicle
FALCON 9
Launch site
Air Force Eastern Test Range (AFETR)
Object type
Payload
Rocket body
Debris
Shape & HBR
Box + 1 Pan, 10.1 m
Radar Cross Section
13.562 m², Large (>1 m²)

Expand to show TLE details & history
Last TLE update: 9 months ago

TLE from 9 months ago
0 STARLINK-1146
1 45094U 20006BC  25277.13349935  .09429169  12325-4  64418-3 0  9993
2 45094  53.0300 167.5563 0005828 238.9446 121.1029 16.40479495314291
Epoch: 2025-10-04T03:12Z
TLE epoch observation values (Epoch: 2025-10-04T03:12:14.343Z)
Latitude
-0.00003°
Longitude
106.42669°
Altitude
167.426 km
Speed
7.806 km/s
True Right ascension
11h 10m 13s
True Declination
0° 00' 00"
Sunlit
Object was in daylight at epoch
Visualization orbit readout
Latitude
Unknown
Longitude
Unknown
Altitude
Unknown
Speed
Unknown
Apparent Right ascension
Unknown
Apparent Declination
Unknown
Sunlit
N/A
Visualization observer readout
Local Sidereal Time
13:28:24
Azimuth
Unknown
Elevation
Unknown
Doppler factor
Unknown
Orbital elements
Apogee altitude
168.631 km
Perigee altitude
161.004 km
Semi-major axis
6,542.955 km
Eccentricity
0.00058
Inclination
53.03°
RAAN
167.5563°
Arg. of periapsis
238.9446°
True anomaly
121.16006°
Mean anomaly
121.1029°
Eccentric anomaly
121.13148°
Mean motion
4.10093 °/min
Orbital period
87.78 mins
BSTAR
0.00064418
Loading maneuver chart data...
Computing Atmospheric mass density...

Documentation

Showing up to 5 results
|